This demonstration page uses our WeatherBlox Daily Observations layout. Learn more.

Left ArrowRight Arrow

41.55636, -103.73856

Hourly Observations for April 6, 2018

Temp ( °F °C ) Dew Point ( °F °C ) Humidity (%) Winds ( mph kmh ) Pressure ( in mb ) Visibility ( mi km ) Precip ( " mm )
12:58 am 00:58 Cloudy 33 0.7 29 -1.5 85 85 E 13 20 29.99 1016 10 16 N/A
1:58 am 01:58 Cloudy 33 0.3 29 -1.8 86 86 E 16 26 29.99 1016 10 16 N/A
2:58 am 02:58 Cloudy 31 -0.3 29 -1.4 92 92 E 13 20 29.98 1015 10 16 N/A
3:58 am 03:58 Cloudy with Light Wintry Mix 29 -1.5 28 -2.4 94 94 ENE 16 26 30.00 1016 7 11 N/A
4:58 am 04:58 Cloudy with Light Snow 24 -4.3 23 -4.8 96 96 ENE 18 30 30.06 1018 3 4 N/A
5:59 am 05:59 Cloudy with Light Snow 22 -5.5 21 -6.1 96 96 ENE 16 26 30.09 1019 2 4 N/A
6:58 am 06:58 Windy with Snow Likely 19 -7.5 17 -8.2 95 95 ENE 21 33 30.16 1022 4 6 N/A
7:58 am 07:58 Cloudy with Light Freezing Rain 18 -7.7 17 -8.6 93 93 ENE 22 35 30.24 1024 3 5 N/A
8:58 am 08:58 Cloudy with Light Snow 18 -7.9 16 -8.7 94 94 NE 17 28 30.26 1025 3 4 N/A
9:58 am 09:58 Cloudy with Light Snow 18 -7.6 16 -8.8 91 91 NE 17 28 30.30 1026 3 5 N/A
10:58 am 10:58 Cloudy with Light Snow 17 -8.4 14 -10.1 88 88 ENE 18 30 30.31 1027 1 2 N/A
11:58 am 11:58 Cloudy with Light Snow 18 -7.6 15 -9.4 87 87 ENE 16 26 30.31 1027 3 5 N/A
12:58 pm 12:58 Cloudy with Light Snow 19 -7.5 14 -9.9 83 83 ENE 15 24 30.31 1027 1 2 N/A
1:58 pm 13:58 Cloudy with Light Snow 19 -7.5 15 -9.7 84 84 E 10 17 30.30 1026 1 2 N/A
2:58 pm 14:58 Cloudy with Light Snow 19 -7.4 13 -10.8 77 77 E 10 17 30.30 1026 2 4 N/A
3:58 pm 15:58 Cloudy with Light Snow 19 -7.1 15 -9.3 85 85 E 10 17 30.29 1026 1 1 N/A
4:58 pm 16:58 Mostly Cloudy with Light Snow 19 -7 15 -9.5 83 83 E 10 17 30.31 1026 10 16 N/A
5:58 pm 17:58 Cloudy with Light Snow 18 -7.7 14 -9.9 84 84 ESE 12 19 30.33 1027 3 5 N/A
6:58 pm 18:58 Cloudy with Light Snow 17 -8.3 13 -10.7 83 83 ESE 10 17 30.35 1028 4 6 N/A
7:58 pm 19:58 Cloudy with Light Snow 17 -8.6 14 -10 90 90 SE 13 20 30.34 1027 10 16 N/A
8:58 pm 20:58 Mostly Cloudy with Light Snow 16 -9.1 13 -10.4 90 90 ESE 15 24 30.34 1027 10 16 N/A
9:58 pm 21:58 Mostly Cloudy with Light Snow 15 -9.7 13 -10.8 92 92 SE 12 19 30.35 1028 10 16 N/A
10:58 pm 22:58 Mostly Cloudy with Light Snow Showers 13 -10.6 12 -11.2 95 95 SE 10 17 30.36 1028 10 16 N/A
11:58 pm 23:58 Cloudy with Light Snow Showers 15 -9.5 13 -10.5 93 93 S 15 24 30.30 1026 8 13 N/A

Powered by AerisWeather